Torna al catalogo

BREEZE-M DEB

AttivoHEO
NORAD 37199·DEBRIS·🇷🇺 Russia

Lanciato Mar 14, 2008 da Baikonur Cosmodrome

Loading…

Prossimi Passaggi (prossime 24 ore)

TLE

AggiornatoSource: Space-Track

Epoca: Sep 13, 2026, 08:09 UTC

1 37199U 08011D   26256.34017346 -.00000563  00000-0 -14611-1 0  9998
2 37199  49.3380   0.2557 6388086 229.2126  67.8591  3.06801846178244

Traccia BREEZE-M DEB in tempo reale con AllMySat

Download on the App Store